This demonstration page uses our WeatherBlox Daily Observations layout. Learn more.

Left ArrowRight Arrow

38.88101, -77.10428

Hourly Observations for December 16, 2019

Temp ( °F °C ) Dew Point ( °F °C ) Humidity (%) Winds ( mph kmh ) Pressure ( in mb ) Visibility ( mi km ) Precip ( " mm )
12:52 am 00:52 Cloudy 40 4.4 24 -4.4 53 53 N 10 17 30.24 1024 10 16 N/A
1:52 am 01:52 Cloudy 40 4.4 24 -4.4 53 53 NNE 13 20 30.23 1024 10 16 N/A
2:52 am 02:52 Cloudy 37 2.8 29 -1.7 73 73 NE 7 11 30.25 1024 10 16 N/A
3:52 am 03:52 Cloudy 37 2.8 29 -1.7 73 73 E 8 13 30.22 1023 10 16 N/A
4:01 am 04:01 Cloudy 37 2.8 29 -1.7 73 73 NE 3 6 30.23 1024 10 16 N/A
4:52 am 04:52 Cloudy with Light Snow 37 2.8 29 -1.7 73 73 E 3 6 30.24 1024 9 14 0.00 0.00
5:39 am 05:39 Cloudy with Light Snow 35 1.7 31 -0.6 85 85 ENE 7 11 30.24 1024 3 4 0.02 0.51
5:45 am 05:45 Cloudy with Mist and Fog 35 1.7 31 -0.6 85 85 ENE 6 9 30.25 1024 2 3 0.02 0.51
5:48 am 05:48 Cloudy with Mist and Fog 36 2 30 -1 81 81 NE 6 9 30.25 1024 3 5 0.03 0.76
5:52 am 05:52 Cloudy with Light Rain/Snow 35 1.7 32 undefined 89 89 NE 7 11 30.24 1024 5 8 0.04 1.02
6:02 am 06:02 Cloudy with Light Rain 35 1.7 32 undefined 89 89 NE 6 9 30.24 1024 5 8 0.01 0.25
6:07 am 06:07 Cloudy with Mist and Fog 35 1.7 32 undefined 89 89 NE 5 7 30.25 1024 5 8 0.01 0.25
6:17 am 06:17 Cloudy with Light Rain 35 1.7 32 undefined 89 89 N N/A 30.26 1025 6 10 0.02 0.51
6:22 am 06:22 Cloudy with Mist and Fog 35 1.7 33 0.6 93 93 ENE 5 7 30.26 1025 6 10 0.02 0.51
6:26 am 06:26 Cloudy with Mist and Fog 35 1.7 33 0.6 93 93 ENE 5 7 30.26 1025 6 10 0.03 0.76
6:48 am 06:48 Cloudy with Mist and Fog 36 2 34 1 93 93 ENE 6 9 30.26 1025 6 10 0.05 1.27
6:52 am 06:52 Cloudy with Light Rain 35 1.7 33 0.6 93 93 NE 5 7 30.26 1025 5 8 0.05 1.27
7:15 am 07:15 Cloudy with Mist and Fog 35 1.7 33 0.6 93 93 ENE 3 6 30.27 1025 4 6 0.02 0.51
7:52 am 07:52 Cloudy with Mist and Fog 35 1.7 33 0.6 93 93 ENE 5 7 30.27 1025 3 5 0.06 1.52
8:06 am 08:06 Cloudy with Mist and Fog 35 1.7 33 0.6 93 93 NE 5 7 30.28 1025 3 4 0.02 0.51
8:15 am 08:15 Cloudy with Mist and Fog 35 1.7 33 0.6 93 93 ENE 5 7 30.27 1025 4 6 0.02 0.51
8:33 am 08:33 Cloudy with Light Rain 35 1.7 34 1.1 96 96 NE 3 6 30.29 1026 3 4 0.03 0.76
8:45 am 08:45 Cloudy with Light Rain 35 1.7 33 0.6 93 93 ENE 5 7 30.28 1025 3 5 0.05 1.27
8:52 am 08:52 Cloudy with Light Rain 35 1.7 34 1.1 96 96 N N/A 30.29 1026 3 5 0.06 1.52
9:13 am 09:13 Cloudy with Light Rain 36 2.2 34 1.1 93 93 N N/A 30.30 1026 3 4 0.03 0.76
9:31 am 09:31 Cloudy with Light Rain 36 2.2 34 1.1 93 93 E 5 7 30.29 1026 3 5 0.06 1.52
9:38 am 09:38 Cloudy with Light Rain 36 2.2 34 1.1 93 93 E 5 7 30.29 1026 3 5 0.06 1.52
9:52 am 09:52 Cloudy with Light Rain 36 2.2 34 1.1 93 93 E 5 7 30.28 1025 4 6 0.08 2.03
10:18 am 10:18 Cloudy with Light Rain 36 2.2 33 0.6 89 89 ENE 5 7 30.27 1025 6 10 0.00 0.00
10:52 am 10:52 Cloudy 36 2.2 34 1.1 93 93 ENE 6 9 30.24 1024 7 11 0.00 0.00
11:20 am 11:20 Cloudy 37 2.8 34 1.1 89 89 ENE 6 9 30.24 1024 7 11 N/A
11:50 am 11:50 Cloudy 36 2 34 1 93 93 NE 8 13 30.22 1023 7 11 N/A
11:52 am 11:52 Cloudy 36 2.2 34 1.1 93 93 NE 8 13 30.22 1023 7 11 N/A
12:52 pm 12:52 Cloudy 37 2.8 34 1.1 89 89 NE 7 11 30.19 1023 7 11 N/A
1:52 pm 13:52 Cloudy with Light Rain 37 2.8 34 1.1 89 89 NE 10 17 30.16 1022 8 13 0.00 0.00
2:09 pm 14:09 Cloudy with Light Rain 37 2.8 34 1.1 89 89 NE 8 13 30.17 1022 7 11 0.00 0.00
2:52 pm 14:52 Cloudy with Light Rain 37 2.8 34 1.1 89 89 NE 8 13 30.19 1022 4 6 0.03 0.76
3:10 pm 15:10 Cloudy with Light Rain 37 2.8 34 1.1 89 89 NE 10 17 30.18 1022 4 6 0.04 1.02
3:30 pm 15:30 Cloudy with Light Rain 37 2.8 35 1.7 93 93 NE 12 19 30.17 1022 5 8 0.06 1.52
3:32 pm 15:32 Cloudy with Light Rain 37 2.8 34 1.1 89 89 NE 9 15 30.18 1022 5 8 0.06 1.52
3:36 pm 15:36 Cloudy with Light Rain 37 2.8 34 1.1 89 89 NE 8 13 30.18 1022 5 8 0.06 1.52
3:52 pm 15:52 Cloudy with Light Rain 37 2.8 34 1.1 89 89 NE 9 15 30.19 1022 5 8 0.07 1.78
3:56 pm 15:56 Cloudy with Light Rain 37 2.8 34 1.1 89 89 NE 9 15 30.19 1022 5 8 0.00 0.00
4:38 pm 16:38 Cloudy with Light Rain 37 2.8 34 1.1 89 89 NE 10 17 30.18 1022 7 11 0.01 0.25
4:52 pm 16:52 Cloudy with Light Rain 36 2.2 34 1.1 93 93 NE 12 19 30.18 1022 8 13 0.01 0.25
5:52 pm 17:52 Cloudy with Light Rain 36 2.2 34 1.1 93 93 NE 10 17 30.20 1023 10 16 0.00 0.00
6:17 pm 18:17 Cloudy 36 2.2 34 1.1 93 93 NE 12 19 30.19 1022 10 16 0.01 0.25
6:52 pm 18:52 Cloudy 36 2.2 34 1.1 93 93 NE 9 15 30.18 1022 9 14 0.01 0.25
7:43 pm 19:43 Cloudy 37 2.8 35 1.7 93 93 ENE 9 15 30.16 1021 9 14 N/A
7:52 pm 19:52 Cloudy 36 2.2 34 1.1 93 93 ENE 10 17 30.16 1021 8 13 N/A
8:52 pm 20:52 Cloudy 36 2.2 35 1.7 97 97 ENE 7 11 30.14 1021 7 11 N/A
9:24 pm 21:24 Cloudy with Drizzle 36 2.2 35 1.7 97 97 E 6 9 30.12 1020 5 8 0.00 0.00
9:52 pm 21:52 Cloudy with Drizzle 36 2.2 35 1.7 97 97 E 8 13 30.09 1019 4 6 0.00 0.00
10:52 pm 22:52 Cloudy with Mist and Fog 37 2.8 36 2.2 96 96 NNE 6 9 30.09 1019 3 5 0.00 0.00
11:05 pm 23:05 Cloudy with Mist and Fog 37 2.8 36 2.2 96 96 N 6 9 30.10 1019 2 3 N/A
11:52 pm 23:52 Cloudy with Drizzle 37 2.8 36 2.2 96 96 N 8 13 30.08 1019 3 4 0.00 0.00

Powered by AerisWeather